JJP405 RJAA-RJOM

Flight info

Callsign JJP405
Flight time 1h 19m
Altitude 30000
Route REDEK Y60 TOKOM Y604 WASYU Y28 BAMBO Y283 ITUKI
Aircraft A320/M-SDE3FGHIRWY/LB1

Departure

Time 2026-04-18 05:34
Airport Narita International Airport (RJAA)

Arrival

Time 2026-04-18 06:53
Airport Matsuyama Airport (RJOM)
Time Latitude Longitude Altitude Speed Heading
2026-04-18 04:42 35.78161 140.38653 144 ft 0 kts 133°
2026-04-18 05:11 35.78163 140.38650 143 ft 3 kts 134°
2026-04-18 05:11 35.78182 140.38629 143 ft 4 kts 144°
2026-04-18 05:12 35.78203 140.38610 143 ft 4 kts 123°
2026-04-18 05:12 35.78209 140.38602 143 ft 1 kts 43°
2026-04-18 05:12 35.78209 140.38601 143 ft 0 kts 43°
2026-04-18 05:17 35.78210 140.38604 143 ft 2 kts 43°
2026-04-18 05:17 35.78227 140.38622 143 ft 4 kts 43°
2026-04-18 05:17 35.78254 140.38654 143 ft 6 kts 43°
2026-04-18 05:17 35.78270 140.38708 143 ft 8 kts 97°
2026-04-18 05:18 35.78255 140.38776 144 ft 9 kts 129°
2026-04-18 05:18 35.78186 140.38802 143 ft 11 kts 168°
2026-04-18 05:18 35.78118 140.38821 143 ft 9 kts 163°
2026-04-18 05:18 35.78071 140.38884 143 ft 12 kts 108°
2026-04-18 05:19 35.78052 140.38974 143 ft 9 kts 98°
2026-04-18 05:19 35.78068 140.39053 143 ft 9 kts 71°
2026-04-18 05:19 35.78045 140.39123 143 ft 10 kts 146°
2026-04-18 05:19 35.77989 140.39164 143 ft 9 kts 146°
2026-04-18 05:20 35.77947 140.39234 144 ft 11 kts 113°
2026-04-18 05:20 35.77919 140.39315 144 ft 11 kts 114°
2026-04-18 05:20 35.77880 140.39409 144 ft 13 kts 118°
2026-04-18 05:20 35.77817 140.39504 144 ft 16 kts 147°
2026-04-18 05:21 35.77717 140.39576 144 ft 18 kts 150°
2026-04-18 05:21 35.77605 140.39657 144 ft 20 kts 149°
2026-04-18 05:21 35.77482 140.39746 144 ft 21 kts 149°
2026-04-18 05:21 35.77349 140.39842 144 ft 23 kts 149°
2026-04-18 05:22 35.77227 140.39930 144 ft 19 kts 150°
2026-04-18 05:22 35.77120 140.40000 144 ft 16 kts 164°
2026-04-18 05:22 35.77028 140.39972 144 ft 14 kts 204°
2026-04-18 05:22 35.76952 140.39931 144 ft 11 kts 204°
2026-04-18 05:23 35.76881 140.39891 144 ft 11 kts 211°
2026-04-18 05:23 35.76840 140.39802 144 ft 13 kts 237°
2026-04-18 05:23 35.76760 140.39744 144 ft 14 kts 221°
2026-04-18 05:23 35.76678 140.39658 144 ft 17 kts 213°
2026-04-18 05:24 35.76566 140.39597 144 ft 19 kts 205°
2026-04-18 05:24 35.76443 140.39528 144 ft 20 kts 204°
2026-04-18 05:24 35.76307 140.39454 144 ft 22 kts 204°
2026-04-18 05:24 35.76169 140.39377 144 ft 20 kts 204°
2026-04-18 05:25 35.76040 140.39306 144 ft 21 kts 204°
2026-04-18 05:25 35.75925 140.39244 143 ft 17 kts 204°
2026-04-18 05:25 35.75842 140.39192 143 ft 14 kts 218°
2026-04-18 05:25 35.75785 140.39087 143 ft 16 kts 239°
2026-04-18 05:26 35.75727 140.38967 144 ft 16 kts 239°
2026-04-18 05:26 35.75673 140.38852 144 ft 17 kts 240°
2026-04-18 05:26 35.75615 140.38733 144 ft 15 kts 240°
2026-04-18 05:26 35.75597 140.38616 144 ft 12 kts 270°
2026-04-18 05:27 35.75613 140.38533 144 ft 11 kts 315°
2026-04-18 05:27 35.75683 140.38483 144 ft 13 kts 329°
2026-04-18 05:27 35.75764 140.38424 144 ft 14 kts 329°
2026-04-18 05:27 35.75856 140.38358 144 ft 16 kts 329°
2026-04-18 05:28 35.75960 140.38283 144 ft 18 kts 329°
2026-04-18 05:28 35.76077 140.38198 144 ft 21 kts 329°
2026-04-18 05:28 35.76207 140.38104 144 ft 23 kts 329°
2026-04-18 05:28 35.76327 140.38017 144 ft 14 kts 329°
2026-04-18 05:29 35.76399 140.37964 144 ft 10 kts 323°
2026-04-18 05:29 35.76397 140.37882 143 ft 11 kts 246°
2026-04-18 05:29 35.76439 140.37808 143 ft 13 kts 329°
2026-04-18 05:29 35.76519 140.37751 144 ft 14 kts 329°
2026-04-18 05:30 35.76609 140.37686 144 ft 16 kts 329°
2026-04-18 05:30 35.76711 140.37612 144 ft 18 kts 329°
2026-04-18 05:30 35.76825 140.37530 144 ft 20 kts 329°
2026-04-18 05:30 35.76950 140.37440 143 ft 21 kts 329°
2026-04-18 05:31 35.77060 140.37360 143 ft 14 kts 329°
2026-04-18 05:31 35.77149 140.37296 148 ft 16 kts 329°
2026-04-18 05:31 35.77228 140.37239 143 ft 10 kts 330°
2026-04-18 05:31 35.77288 140.37197 143 ft 8 kts 330°
2026-04-18 05:32 35.77333 140.37150 143 ft 10 kts 299°
2026-04-18 05:32 35.77337 140.37086 143 ft 5 kts 257°
2026-04-18 05:32 35.77317 140.37038 142 ft 8 kts 230°
2026-04-18 05:32 35.77255 140.37011 141 ft 11 kts 181°
2026-04-18 05:33 35.77173 140.37027 142 ft 13 kts 160°
2026-04-18 05:33 35.77081 140.37088 141 ft 21 kts 149°
2026-04-18 05:33 35.76756 140.37323 145 ft 96 kts 149°
2026-04-18 05:33 35.75970 140.37890 151 ft 162 kts 149°
2026-04-18 05:34 35.74978 140.38637 856 ft 169 kts 150°
2026-04-18 05:34 35.73953 140.39396 1758 ft 173 kts 153°
2026-04-18 05:34 35.72923 140.40126 2595 ft 170 kts 153°
2026-04-18 05:34 35.71903 140.40852 3301 ft 170 kts 153°
2026-04-18 05:35 35.70858 140.41598 3671 ft 185 kts 153°
2026-04-18 05:35 35.69671 140.42444 3886 ft 209 kts 153°
2026-04-18 05:35 35.68335 140.43395 4213 ft 234 kts 152°
2026-04-18 05:35 35.66849 140.44459 4644 ft 258 kts 153°
2026-04-18 05:36 35.65259 140.45600 5393 ft 270 kts 153°
2026-04-18 05:36 35.63618 140.46782 6254 ft 277 kts 153°
2026-04-18 05:36 35.61828 140.47620 7022 ft 277 kts 175°
2026-04-18 05:36 35.59917 140.47628 7873 ft 275 kts 187°
2026-04-18 05:37 35.58003 140.47472 8782 ft 276 kts 187°
2026-04-18 05:37 35.56084 140.47309 9718 ft 277 kts 187°
2026-04-18 05:37 35.54132 140.47142 10405 ft 289 kts 187°
2026-04-18 05:37 35.52060 140.46859 10655 ft 310 kts 197°
2026-04-18 05:38 35.50084 140.45679 10949 ft 324 kts 220°
2026-04-18 05:38 35.48663 140.43513 11522 ft 331 kts 244°
2026-04-18 05:38 35.48116 140.40768 12196 ft 338 kts 265°
2026-04-18 05:38 35.48074 140.37873 12913 ft 340 kts 267°
2026-04-18 05:39 35.48068 140.34962 13636 ft 342 kts 267°
2026-04-18 05:39 35.48072 140.32070 14271 ft 344 kts 267°
2026-04-18 05:39 35.48075 140.29126 14906 ft 346 kts 267°
2026-04-18 05:39 35.48073 140.26135 15557 ft 347 kts 267°
2026-04-18 05:40 35.48066 140.23206 16175 ft 348 kts 267°
2026-04-18 05:40 35.48054 140.20225 16781 ft 350 kts 267°
2026-04-18 05:40 35.48043 140.17229 17385 ft 352 kts 267°
2026-04-18 05:40 35.48032 140.14217 18004 ft 354 kts 267°
2026-04-18 05:41 35.48018 140.11147 18590 ft 356 kts 267°
2026-04-18 05:41 35.48001 140.08127 19134 ft 358 kts 267°
2026-04-18 05:41 35.47985 140.05068 19688 ft 360 kts 267°
2026-04-18 05:41 35.47970 140.01981 20249 ft 362 kts 267°
2026-04-18 05:42 35.47952 139.98888 20795 ft 364 kts 267°
2026-04-18 05:42 35.47932 139.95773 21317 ft 365 kts 268°
2026-04-18 05:42 35.47911 139.92648 21821 ft 367 kts 268°
2026-04-18 05:42 35.47712 139.89522 22299 ft 368 kts 259°
2026-04-18 05:43 35.47024 139.86498 22783 ft 369 kts 249°
2026-04-18 05:43 35.46096 139.83593 23253 ft 372 kts 249°
2026-04-18 05:43 35.45160 139.80646 23701 ft 374 kts 250°
2026-04-18 05:43 35.44213 139.77647 24103 ft 375 kts 250°
2026-04-18 05:44 35.43271 139.74658 24541 ft 376 kts 250°
2026-04-18 05:44 35.42330 139.71666 24940 ft 377 kts 250°
2026-04-18 05:44 35.41385 139.68664 25358 ft 377 kts 250°
2026-04-18 05:44 35.40435 139.65654 25786 ft 378 kts 250°
2026-04-18 05:45 35.39484 139.62649 26207 ft 378 kts 250°
2026-04-18 05:45 35.38528 139.59649 26632 ft 379 kts 250°
2026-04-18 05:45 35.37568 139.56634 27058 ft 379 kts 250°
2026-04-18 05:45 35.36609 139.53621 27498 ft 380 kts 250°
2026-04-18 05:46 35.35659 139.50638 27912 ft 380 kts 250°
2026-04-18 05:46 35.34803 139.47572 28326 ft 380 kts 257°
2026-04-18 05:46 35.34399 139.44373 28746 ft 381 kts 265°
2026-04-18 05:46 35.34256 139.41125 29161 ft 382 kts 265°
2026-04-18 05:47 35.34111 139.37867 29570 ft 383 kts 265°
2026-04-18 05:47 35.33963 139.34616 29980 ft 382 kts 265°
2026-04-18 05:47 35.33666 139.28211 30072 ft 372 kts 265°
2026-04-18 05:48 35.33368 139.21909 30073 ft 370 kts 265°
2026-04-18 05:48 35.33067 139.15609 30071 ft 370 kts 265°
2026-04-18 05:49 35.32767 139.09321 30073 ft 370 kts 265°
2026-04-18 05:49 35.32459 139.03014 30064 ft 371 kts 265°
2026-04-18 05:50 35.32141 138.96742 30057 ft 371 kts 265°
2026-04-18 05:50 35.31831 138.90445 30057 ft 371 kts 265°
2026-04-18 05:51 35.31520 138.84148 30050 ft 370 kts 265°
2026-04-18 05:51 35.31195 138.77845 30043 ft 370 kts 265°
2026-04-18 05:52 35.30865 138.71545 30048 ft 371 kts 265°
2026-04-18 05:52 35.30544 138.65249 30052 ft 370 kts 265°
2026-04-18 05:53 35.30217 138.58961 30051 ft 369 kts 265°
2026-04-18 05:53 35.29887 138.52734 30047 ft 368 kts 265°
2026-04-18 05:54 35.29546 138.46460 30037 ft 369 kts 265°
2026-04-18 05:54 35.29212 138.40193 30024 ft 368 kts 265°
2026-04-18 05:55 35.28873 138.33912 30049 ft 371 kts 265°
2026-04-18 05:55 35.28525 138.27612 30041 ft 371 kts 264°
2026-04-18 05:56 35.28174 138.21306 30048 ft 371 kts 264°
2026-04-18 05:56 35.27816 138.15015 30045 ft 370 kts 264°
2026-04-18 05:57 35.27283 138.05616 30012 ft 366 kts 264°
2026-04-18 05:58 35.26932 137.99411 30015 ft 369 kts 264°
2026-04-18 05:58 35.26567 137.93100 30027 ft 369 kts 264°
2026-04-18 05:59 35.26197 137.86860 30048 ft 370 kts 264°
2026-04-18 05:59 35.25890 137.81611 30047 ft 369 kts 264°
2026-04-18 06:00 35.25486 137.75370 30040 ft 367 kts 264°
2026-04-18 06:00 35.25009 137.69155 30033 ft 367 kts 263°
2026-04-18 06:01 35.24528 137.62975 30034 ft 367 kts 263°
2026-04-18 06:01 35.23414 137.56907 30003 ft 367 kts 252°
2026-04-18 06:02 35.21722 137.51010 30020 ft 368 kts 252°
2026-04-18 06:02 35.20040 137.45104 30017 ft 368 kts 252°
2026-04-18 06:03 35.18347 137.39197 30024 ft 368 kts 252°
2026-04-18 06:03 35.16651 137.33304 30013 ft 367 kts 252°
2026-04-18 06:04 35.14959 137.27419 30010 ft 367 kts 252°
2026-04-18 06:04 35.13258 137.21530 30010 ft 367 kts 252°
2026-04-18 06:05 35.11561 137.15653 30004 ft 367 kts 252°
2026-04-18 06:05 35.09863 137.09768 30007 ft 367 kts 252°
2026-04-18 06:06 35.08157 137.03896 30009 ft 367 kts 252°
2026-04-18 06:06 35.06445 136.98015 30048 ft 367 kts 252°
2026-04-18 06:07 35.04736 136.92141 30027 ft 367 kts 252°
2026-04-18 06:07 35.03035 136.86308 30026 ft 367 kts 252°
2026-04-18 06:08 35.01323 136.80453 30025 ft 367 kts 252°
2026-04-18 06:08 34.99738 136.74540 30012 ft 367 kts 254°
2026-04-18 06:09 34.98306 136.68574 30022 ft 366 kts 255°
2026-04-18 06:09 34.96871 136.62594 30023 ft 367 kts 255°
2026-04-18 06:10 34.95407 136.56642 30019 ft 367 kts 254°
2026-04-18 06:10 34.93926 136.50703 30022 ft 366 kts 254°
2026-04-18 06:11 34.92432 136.44750 30023 ft 366 kts 254°
2026-04-18 06:11 34.90937 136.38806 30026 ft 366 kts 254°
2026-04-18 06:12 34.89455 136.32894 30024 ft 366 kts 254°
2026-04-18 06:12 34.87965 136.26973 30025 ft 366 kts 254°
2026-04-18 06:13 34.86474 136.21048 30020 ft 365 kts 254°
2026-04-18 06:13 34.84977 136.15133 30004 ft 365 kts 253°
2026-04-18 06:14 34.83479 136.09227 29998 ft 365 kts 253°
2026-04-18 06:14 34.81991 136.03351 30005 ft 366 kts 253°
2026-04-18 06:15 34.80476 135.97405 30029 ft 366 kts 254°
2026-04-18 06:15 34.78972 135.91524 30011 ft 366 kts 253°
2026-04-18 06:16 34.77461 135.85614 29999 ft 365 kts 253°
2026-04-18 06:16 34.75946 135.79714 29996 ft 365 kts 253°
2026-04-18 06:17 34.74425 135.73812 29986 ft 365 kts 253°
2026-04-18 06:17 34.72906 135.67910 29986 ft 366 kts 253°
2026-04-18 06:18 34.71388 135.62006 29982 ft 366 kts 253°
2026-04-18 06:18 34.69874 135.56155 29980 ft 366 kts 253°
2026-04-18 06:19 34.68347 135.50246 29984 ft 366 kts 253°
2026-04-18 06:19 34.66817 135.44343 29986 ft 366 kts 253°
2026-04-18 06:20 34.65409 135.38403 29980 ft 366 kts 261°
2026-04-18 06:20 34.64887 135.32280 29977 ft 367 kts 262°
2026-04-18 06:21 34.64347 135.26071 29976 ft 368 kts 262°
2026-04-18 06:21 34.63824 135.19914 30021 ft 368 kts 263°
2026-04-18 06:22 34.63303 135.13745 30015 ft 367 kts 263°
2026-04-18 06:22 34.62773 135.07570 30015 ft 367 kts 263°
2026-04-18 06:23 34.62241 135.01416 30021 ft 366 kts 263°
2026-04-18 06:23 34.61710 134.95249 30042 ft 366 kts 262°
2026-04-18 06:24 34.61178 134.89099 30034 ft 366 kts 262°
2026-04-18 06:24 34.60645 134.82940 30008 ft 367 kts 262°
2026-04-18 06:25 34.60104 134.76772 30009 ft 367 kts 262°
2026-04-18 06:25 34.59557 134.70635 30020 ft 368 kts 262°
2026-04-18 06:26 34.59013 134.64448 30022 ft 369 kts 262°
2026-04-18 06:26 34.58466 134.58258 30053 ft 368 kts 262°
2026-04-18 06:27 34.57911 134.52080 30055 ft 368 kts 262°
2026-04-18 06:27 34.57353 134.45902 30025 ft 369 kts 262°
2026-04-18 06:28 34.56795 134.39704 30038 ft 369 kts 262°
2026-04-18 06:28 34.56233 134.33548 30039 ft 370 kts 262°
2026-04-18 06:29 34.55665 134.27351 30041 ft 369 kts 262°
2026-04-18 06:29 34.55097 134.21155 30062 ft 369 kts 262°
2026-04-18 06:30 34.54518 134.14951 30034 ft 369 kts 262°
2026-04-18 06:30 34.53936 134.08751 30028 ft 370 kts 262°
2026-04-18 06:31 34.53356 134.02586 30046 ft 370 kts 262°
2026-04-18 06:31 34.52773 133.96378 29807 ft 370 kts 262°
2026-04-18 06:31 34.52498 133.93469 29549 ft 370 kts 262°
2026-04-18 06:32 34.52206 133.90396 29281 ft 372 kts 262°
2026-04-18 06:32 34.51910 133.87278 29010 ft 373 kts 262°
2026-04-18 06:32 34.51612 133.84149 28635 ft 368 kts 262°
2026-04-18 06:32 34.51319 133.81082 28117 ft 363 kts 262°
2026-04-18 06:33 34.51033 133.78074 27616 ft 358 kts 262°
2026-04-18 06:33 34.50749 133.75084 27120 ft 353 kts 262°
2026-04-18 06:33 34.50467 133.72143 26622 ft 349 kts 263°
2026-04-18 06:33 34.50183 133.69236 26139 ft 346 kts 263°
2026-04-18 06:34 34.49898 133.66348 25651 ft 343 kts 263°
2026-04-18 06:34 34.49620 133.63521 25179 ft 342 kts 263°
2026-04-18 06:34 34.49340 133.60663 24696 ft 341 kts 263°
2026-04-18 06:34 34.49062 133.57800 24229 ft 340 kts 264°
2026-04-18 06:35 34.48785 133.54952 23749 ft 340 kts 264°
2026-04-18 06:35 34.48505 133.52109 23258 ft 339 kts 264°
2026-04-18 06:35 34.48226 133.49269 22779 ft 339 kts 264°
2026-04-18 06:35 34.47945 133.46439 22335 ft 339 kts 264°
2026-04-18 06:36 34.47662 133.43600 21899 ft 338 kts 264°
2026-04-18 06:36 34.47383 133.40777 21424 ft 338 kts 264°
2026-04-18 06:36 34.46981 133.37978 20924 ft 337 kts 256°
2026-04-18 06:36 34.46205 133.35301 20427 ft 337 kts 252°
2026-04-18 06:37 34.45371 133.32646 19935 ft 336 kts 252°
2026-04-18 06:37 34.44540 133.30001 19436 ft 336 kts 251°
2026-04-18 06:37 34.43711 133.27358 18931 ft 335 kts 252°
2026-04-18 06:37 34.42883 133.24716 18415 ft 335 kts 252°
2026-04-18 06:38 34.42055 133.22073 17846 ft 336 kts 252°
2026-04-18 06:38 34.41236 133.19467 17324 ft 335 kts 252°
2026-04-18 06:38 34.40408 133.16836 16786 ft 334 kts 252°
2026-04-18 06:38 34.39567 133.14182 16262 ft 334 kts 251°
2026-04-18 06:39 34.38728 133.11553 15715 ft 336 kts 251°
2026-04-18 06:39 34.37894 133.08935 15187 ft 337 kts 251°
2026-04-18 06:39 34.37049 133.06283 14636 ft 338 kts 251°
2026-04-18 06:39 34.36200 133.03620 14099 ft 340 kts 251°
2026-04-18 06:40 34.35344 133.00945 13514 ft 343 kts 251°
2026-04-18 06:40 34.34477 132.98235 12908 ft 345 kts 251°
2026-04-18 06:40 34.33612 132.95529 12361 ft 345 kts 251°
2026-04-18 06:40 34.32715 132.92832 11802 ft 345 kts 246°
2026-04-18 06:41 34.31481 132.90516 11281 ft 347 kts 231°
2026-04-18 06:41 34.29706 132.88532 10722 ft 350 kts 216°
2026-04-18 06:41 34.27598 132.87202 10485 ft 342 kts 200°
2026-04-18 06:41 34.25359 132.86411 10371 ft 330 kts 196°
2026-04-18 06:42 34.23177 132.85686 10236 ft 319 kts 196°
2026-04-18 06:42 34.21073 132.84983 10112 ft 309 kts 196°
2026-04-18 06:42 34.19026 132.84296 9954 ft 301 kts 196°
2026-04-18 06:42 34.17018 132.83625 9566 ft 301 kts 196°
2026-04-18 06:43 34.14988 132.82949 9116 ft 304 kts 195°
2026-04-18 06:43 34.12943 132.82268 8666 ft 306 kts 195°
2026-04-18 06:43 34.10886 132.81580 8210 ft 307 kts 195°
2026-04-18 06:43 34.08812 132.80885 7752 ft 309 kts 194°
2026-04-18 06:44 34.06689 132.80509 7299 ft 309 kts 184°
2026-04-18 06:44 34.04641 132.79930 7156 ft 299 kts 206°
2026-04-18 06:44 34.03045 132.78424 7032 ft 288 kts 232°
2026-04-18 06:44 34.01990 132.76405 6914 ft 279 kts 241°
2026-04-18 06:45 34.01074 132.74376 6791 ft 272 kts 242°
2026-04-18 06:45 34.00198 132.72391 6582 ft 267 kts 242°
2026-04-18 06:45 33.99355 132.70453 6461 ft 259 kts 242°
2026-04-18 06:45 33.98538 132.68560 6330 ft 251 kts 242°
2026-04-18 06:46 33.97742 132.66721 6209 ft 244 kts 241°
2026-04-18 06:46 33.96969 132.64920 6066 ft 242 kts 242°
2026-04-18 06:46 33.96202 132.63141 5953 ft 237 kts 242°
2026-04-18 06:46 33.95421 132.61404 5832 ft 235 kts 236°
2026-04-18 06:47 33.94238 132.60122 5683 ft 228 kts 202°
2026-04-18 06:47 33.92713 132.59809 5467 ft 222 kts 170°
2026-04-18 06:47 33.91239 132.60336 5223 ft 222 kts 160°
2026-04-18 06:47 33.89763 132.60889 5084 ft 221 kts 161°
2026-04-18 06:48 33.88297 132.61414 4955 ft 218 kts 161°
2026-04-18 06:48 33.86863 132.61935 4819 ft 211 kts 162°
2026-04-18 06:48 33.85511 132.62436 4573 ft 203 kts 161°
2026-04-18 06:48 33.84151 132.62940 4198 ft 201 kts 161°
2026-04-18 06:49 33.82914 132.63633 3829 ft 198 kts 139°
2026-04-18 06:49 33.81931 132.64794 3425 ft 197 kts 131°
2026-04-18 06:49 33.81024 132.66025 2889 ft 197 kts 129°
2026-04-18 06:49 33.80128 132.67267 2429 ft 198 kts 129°
2026-04-18 06:50 33.79225 132.68515 2005 ft 198 kts 129°
2026-04-18 06:50 33.78324 132.69759 1652 ft 197 kts 129°
2026-04-18 06:50 33.77450 132.70975 1501 ft 188 kts 129°
2026-04-18 06:50 33.76737 132.72212 1373 ft 175 kts 104°
2026-04-18 06:51 33.76757 132.73116 1297 ft 157 kts 62°
2026-04-18 06:51 33.77527 132.73848 1163 ft 139 kts 10°
2026-04-18 06:51 33.78453 132.73756 1069 ft 133 kts 340°
2026-04-18 06:51 33.79318 132.73384 873 ft 132 kts 343°
2026-04-18 06:52 33.80197 132.73028 694 ft 134 kts 338°
2026-04-18 06:52 33.80985 132.72429 493 ft 135 kts 314°
2026-04-18 06:52 33.81596 132.71554 295 ft 136 kts 306°
2026-04-18 06:52 33.82211 132.70689 49 ft 136 kts 306°
2026-04-18 06:53 33.82758 132.69908 25 ft 104 kts 310°
2026-04-18 06:53 33.83118 132.69409 26 ft 55 kts 310°
2026-04-18 06:53 33.83282 132.69176 24 ft 33 kts 311°
2026-04-18 06:53 33.83383 132.69039 23 ft 15 kts 311°
2026-04-18 06:54 33.83470 132.68972 24 ft 16 kts 10°
2026-04-18 06:54 33.83545 132.69062 28 ft 15 kts 69°
2026-04-18 06:54 33.83506 132.69175 28 ft 17 kts 131°
2026-04-18 06:54 33.83424 132.69288 28 ft 20 kts 131°
2026-04-18 06:55 33.83333 132.69416 27 ft 18 kts 130°
2026-04-18 06:55 33.83254 132.69528 28 ft 14 kts 130°
2026-04-18 06:55 33.83184 132.69624 30 ft 17 kts 130°
2026-04-18 06:55 33.83103 132.69739 27 ft 20 kts 130°
2026-04-18 06:56 33.83010 132.69868 30 ft 21 kts 130°
2026-04-18 06:56 33.82929 132.69983 27 ft 11 kts 130°
2026-04-18 06:56 33.82872 132.70064 26 ft 14 kts 131°
2026-04-18 06:56 33.82811 132.70148 25 ft 12 kts 131°
2026-04-18 06:57 33.82750 132.70234 30 ft 14 kts 131°
2026-04-18 06:57 33.82703 132.70324 26 ft 4 kts 57°
2026-04-18 06:57 33.82734 132.70352 26 ft 7 kts 40°
2026-04-18 06:58 33.82758 132.70378 25 ft 4 kts 41°
2026-04-18 06:58 33.82782 132.70403 25 ft 3 kts 40°
2026-04-18 06:58 33.82796 132.70417 25 ft 2 kts 40°
2026-04-18 06:58 33.82799 132.70421 29 ft 0 kts 40°